This is the latest recevied weather packets stored in our database for station/object KB1WCR. If no packets are shown the sender has not sent any weather packets the latest 10 day(s).
| Time | Temp. | Humidity | Pressure | Rain* | Wind** | Luminosity | Snow |
|---|---|---|---|---|---|---|---|
| 1787915070 | 19.44° C | 99% | 1015.7 hPa | 0 mm | - | 40 W/m² | - |
| 1787914769 | 19.44° C | 99% | 1015.7 hPa | 0 mm | - | 32 W/m² | - |
| 1787914464 | 19.44° C | 99% | 1015.7 hPa | 0 mm | - | 31 W/m² | - |
| 1787914159 | 19.44° C | 99% | 1015.7 hPa | 0 mm | - | 30 W/m² | - |
| 1787913858 | 18.89° C | 99% | 1015.6 hPa | 0 mm | - | 26 W/m² | - |
| 1787913553 | 18.89° C | 99% | 1015.6 hPa | 0 mm | - | 24 W/m² | - |
| 1787913252 | 18.89° C | 99% | 1015.6 hPa | 0 mm | - | 16 W/m² | - |
| 1787912951 | 18.89° C | 99% | 1015.4 hPa | 0 mm | - | 10 W/m² | - |
| 1787912651 | 18.89° C | 99% | 1015 hPa | 0 mm | - | 7 W/m² | - |
| 1787912350 | 18.89° C | 99% | 1015.2 hPa | 0 mm | - | 9 W/m² | - |
| 1787912049 | 18.89° C | 99% | 1015.2 hPa | 0 mm | - | 9 W/m² | - |
| 1787911744 | 18.33° C | 99% | 1015.4 hPa | 0 mm | - | 5 W/m² | - |
| 1787911443 | 18.33° C | 99% | 1015.2 hPa | 0 mm | - | 3 W/m² | - |
| 1787911136 | 17.78° C | 99% | 1015.2 hPa | 0 mm | - | 2 W/m² | - |
| 1787910830 | 17.78° C | 99% | 1015.1 hPa | 0 mm | - | 1 W/m² | - |
| 1787910526 | 17.78° C | 99% | 1015.1 hPa | 0 mm | - | 0 W/m² | - |
| 1787910221 | 17.78° C | 99% | 1015.1 hPa | 0 mm | - | 0 W/m² | - |
| 1787909919 | 17.78° C | 99% | 1015 hPa | 0 mm | - | 0 W/m² | - |
| 1787909618 | 17.78° C | 99% | 1014.8 hPa | 0 mm | - | 0 W/m² | - |
| 1787909318 | 17.78° C | 99% | 1014.8 hPa | 0 mm | - | 0 W/m² | - |
| 1787909013 | 17.78° C | 99% | 1015 hPa | 0 mm | - | 0 W/m² | - |
| 1787908712 | 17.78° C | 99% | 1014.8 hPa | 0 mm | - | 0 W/m² | - |
| 1787908408 | 17.78° C | 99% | 1014.9 hPa | 0 mm | - | 0 W/m² | - |
| 1787908107 | 17.78° C | 99% | 1014.9 hPa | 0 mm | - | 0 W/m² | - |
| 1787907802 | 17.78° C | 99% | 1014.9 hPa | 0 mm | - | 0 W/m² | - |
* Rain latest hour (hover to see other rain measurements)
** Current wind speed in m/s (hover to see current wind gust speed)